Location: Boiro
(42.6475°N, 8.8834°W)
Time: 12:19:34
(UTC+01:00)

Altair - Pass Details

Date: 01 December 2021
Orbit: 1501 x 1683 km, 47.2° (Epoch: 17 January)

Event Time Altitude Azimuth Distance (km) Brightness Sun altitude
Rises 23:44:33 0° 295° (WNW) 4,654 10.5 -60.6°
Reaches altitude 10° 23:47:37 10° 293° (WNW) 3,661 9.8 -61.0°
Enters shadow 23:48:06 12° 292° (WNW) 3,509 9.6 -61.1°
